User: anonymous   Login
Location: Chevoux
(46.3801°N, 4.9476°E)
Time: 13:15:54
(UTC+00:00)
Language:

deb Explorer IX - Orbit

View from above orbital plane
View from above orbital plane
View from above satellite
View from above satellite

Ground track
Ground track

The orbit data is extracted from the following two-line orbital elements,

1    85U 61004C   21132.71807990  .00000586  00000-0  14219-3 0  9993
2    85  38.7731 139.7396 0387043 175.0973 185.3727 14.21666353977934
Epoch (UTC): 12 May 2021 17:14:02
Eccentricity: 0.0387043
inclination: 38.7731°
perigee height: 541 km
apogee height: 1098 km
right ascension of ascending node: 139.7396°
argument of perigee: 175.0973°
revolutions per day: 14.21666353
mean anomaly at epoch: 185.3727°
orbit number at epoch: 97793

The dashed part of the orbit path shows where the satellite is in the earth's shadow,  

DLR